sat.trackr.live / text

‹ back to catalog

ONEWEB-0510

NORAD 54128 · 2022-138R

PAYLOAD ACTIVE UNKNOWN

§ Identity

Operator
Country
UK
Launch date
2022-10-22
Launch site
SRILR
Launch vehicle
Mass (kg)
RCS (m²)

Purposes: comms

External: N2YO · Heavens-Above · Gunter

§ Orbital elements

Epoch: 2026-09-19T18:03:13.336416Z

Period
109.03 min
Inclination
87.9144°
Eccentricity
0.0002003
Mean motion
13.20770241 rev/d
Perigee alt
1,180.3 km
Apogee alt
1,183.3 km
Semi-major
7,559.9 km
B*
1.2258e-4
RAAN
255.5700°
Arg perigee
100.5169°
Mean anomaly
259.6190°
Rev number
19,176

§ Raw data

ONEWEB-05101 54128U 22138R   26262.75223769  .00000063  00000+0  12258-3 0  99942 54128  87.9144 255.5700 0002003 100.5169 259.6190 13.20770241191769

JSON: /api/v1/satellites/54128 · /tle

For live sub-satellite position, see the globe view (requires WebGL).

§ Visibility from observer

Set your observer location to see the next 7 days of passes ≥ 10°. The values pass through the URL so the page stays shareable.

No JS? Fill the form by hand. The geolocation button needs JavaScript.